Location: Estes Par
(40.3770°N, 105.5210°W)
Time: 11:03:51
(UTC-07:00)

N. Korean satellite - Pass Details

Date: 15 October 2017
Orbit: 461 x 513 km, 97.2° (Epoch: 14 December)

Event Time Altitude Azimuth Distance (km) Brightness Sun altitude
Rises 20:10:30 0° 211° (SSW) 2,536 10.5 -21.5°
Reaches altitude 10° 20:13:41 10° 243° (WSW) 1,649 10.0 -22.1°
Maximum altitude 20:15:09 12° 268° (W) 1,516 10.1 -22.4°
Drops below altitude 10° 20:16:37 10° 293° (WNW) 1,643 10.3 -22.6°
Sets 20:19:47 0° 325° (NW) 2,516 10.8 -23.2°
